This demonstration page uses our WeatherBlox Daily Observations layout. Learn more.

Left ArrowRight Arrow

38.80484, -77.04692

Hourly Observations for October 6, 2019

Temp ( °F °C ) Dew Point ( °F °C ) Humidity (%) Winds ( mph kmh ) Pressure ( in mb ) Visibility ( mi km ) Precip ( " mm )
12:06 am 00:06 Cloudy 62 16.7 51 10.6 67 67 S 8 13 30.32 1027 10 16 0.00 0.00
12:52 am 00:52 Cloudy 62 16.7 52 11.1 70 70 S 7 11 30.30 1026 10 16 0.00 0.00
1:52 am 01:52 Cloudy 62 16.7 52 11.1 70 70 SSE 8 13 30.30 1026 10 16 0.00 0.00
2:52 am 02:52 Cloudy 62 16.7 53 11.7 73 73 S 7 11 30.29 1026 10 16 0.00 0.00
3:30 am 03:30 Cloudy 63 17.2 54 12.2 73 73 SSE 7 11 30.28 1025 10 16 0.00 0.00
3:52 am 03:52 Cloudy 63 17.2 55 12.8 76 76 SSE 6 9 30.27 1025 10 16 0.00 0.00
4:52 am 04:52 Cloudy 63 17.2 55 12.8 76 76 SSE 6 9 30.27 1025 10 16 0.00 0.00
5:52 am 05:52 Cloudy 63 17.2 55 12.8 76 76 WSW 3 6 30.27 1025 10 16 0.00 0.00
6:52 am 06:52 Cloudy 64 17.8 56 13.3 75 75 Calm 30.27 1025 10 16 0.00 0.00
7:52 am 07:52 Cloudy 65 18.3 57 13.9 76 76 SSE 3 6 30.28 1025 10 16 0.00 0.00
8:52 am 08:52 Cloudy 65 18.3 58 14.4 78 78 S 5 7 30.28 1026 10 16 0.00 0.00
9:52 am 09:52 Cloudy 67 19.4 58 14.4 73 73 SSW 5 7 30.29 1026 10 16 0.00 0.00
10:52 am 10:52 Cloudy 68 20 59 15 73 73 S 13 20 30.29 1026 10 16 0.00 0.00
11:52 am 11:52 Cloudy 70 21.1 60 15.6 71 71 S 9 15 30.28 1025 10 16 0.00 0.00
12:52 pm 12:52 Cloudy 70 21.1 60 15.6 71 71 S 13 20 30.27 1025 10 16 0.00 0.00
1:52 pm 13:52 Cloudy 72 22.2 60 15.6 66 66 SSW 13 20 30.26 1025 10 16 0.00 0.00
2:52 pm 14:52 Cloudy 72 22.2 61 16.1 68 68 S 13 20 30.24 1024 10 16 0.00 0.00
3:52 pm 15:52 Cloudy 73 22.8 61 16.1 66 66 SSW 14 22 30.24 1024 10 16 0.00 0.00
4:52 pm 16:52 Cloudy 73 22.8 61 16.1 66 66 S 14 22 30.23 1024 10 16 0.00 0.00
5:52 pm 17:52 Cloudy 73 22.8 62 16.7 69 69 S 13 20 30.22 1023 10 16 0.00 0.00
7:52 pm 19:52 Cloudy 72 22.2 64 17.8 76 76 S 10 17 30.22 1023 10 16 0.00 0.00
8:52 pm 20:52 Mostly Cloudy 72 22.2 63 17.2 73 73 SSW 7 11 30.22 1023 10 16 0.00 0.00
9:52 pm 21:52 Cloudy 72 22.2 63 17.2 73 73 SSW 8 13 30.22 1024 10 16 0.00 0.00
10:52 pm 22:52 Cloudy 71 21.7 64 17.8 79 79 S 7 11 30.22 1024 10 16 0.00 0.00
11:52 pm 23:52 Cloudy 71 21.7 63 17.2 76 76 SSW 7 11 30.22 1023 10 16 0.00 0.00

Powered by AerisWeather